Regional Weather Roundup
Issued by NWS Little Rock, AR

Home | Current Version | Previous Version | Graphics & Text | Print | Product List | Glossary On
Versions: 1 2 3 4 5 6 7 8 9 10 11 12 13 14 15 16 17 18 19 20 21 22 23 24 25 26 27 28 29 30 31 32 33 34 35 36 37 38 39 40 41 42 43 44 45 46 47 48 49 50
000
ASUS44 KLZK 241605
RWRLZK

WEATHER ROUNDUP FOR ARKANSAS
NATIONAL WEATHER SERVICE LITTLE ROCK AR
1100 AM CDT THU JUL 24 2014

NOTE: "FAIR" INDICATES FEW OR NO CLOUDS BELOW 12,000 FEET WITH NO
SIGNIFICANT WEATHER AND/OR OBSTRUCTIONS TO VISIBILITY.

ARZ001-003-010-029-241700-
NORTHWEST ARKANSAS

CITY           SKY/WX    TMP DP  RH WIND       PRES   REMARKS
FAYETTEVILLE   CLOUDY    73  68  84 SE6       30.14S
FORT SMITH     CLOUDY    77  68  73 SE10      30.10S
HARRISON       MOSUNNY   74  55  51 E9        30.16S
BENTONVILLE    PTSUNNY   79  68  69 SE7       30.14F
ROGERS         PTSUNNY   79  66  65 E8        30.15S
SILOAM SPGS    CLOUDY    73  64  73 E7        30.15S
HIGHFILL       PTSUNNY   77  69  76 SE7       30.13F
SPRINGDALE     PTSUNNY   75  68  78 E13       30.16R
$$

ARZ004-005-016-241700-
NORTH CENTRAL ARKANSAS

CITY           SKY/WX    TMP DP  RH WIND       PRES   REMARKS
BATESVILLE     CLOUDY    75  57  53 N5        30.12S
FLIPPIN        SUNNY     75  57  53 E6        30.15S
MTN HOME       SUNNY     75  58  55 NE6       30.14S
$$

ARZ040-041-241700-
WEST CENTRAL ARKANSAS

CITY           SKY/WX    TMP DP  RH WIND       PRES   REMARKS
MENA           MOSUNNY   79  70  73 CALM      30.12S
MOUNT IDA      CLOUDY    75  69  81 VRB3      30.10S
$$

ARZ009-017-025-026-028-241700-
NORTHEAST ARKANSAS

CITY           SKY/WX    TMP DP  RH WIND       PRES   REMARKS
CORNING          N/A     75  55  50 N12G18    30.12S
JONESBORO      SUNNY     76  57  51 N9        30.09F
NEWPORT        SUNNY     75  62  64 NE13G26   30.12S
WALNUT RIDGE   SUNNY     75  55  50 N10       30.11S
BLYTHEVILLE    SUNNY     74  59  59 N12       30.09S
$$

ARZ022-023-033-042-044-241700-
CENTRAL ARKANSAS

CITY           SKY/WX    TMP DP  RH WIND       PRES   REMARKS
LITTLE ROCK    CLOUDY    76  69  79 NE7       30.10S
N LITTLE ROCK  CLOUDY    76  71  85 N8        30.10S
JACKSONVILLE   CLOUDY    79  42  27 N7        30.10S
SEARCY         SUNNY     77  56  48 N9        30.12R
HOT SPRINGS    CLOUDY    74  70  87 E7        30.11S
RUSSELLVILLE   CLOUDY    77  68  73 E5        30.11S
CLINTON        CLOUDY    77  57  50 E5        30.13R
$$

ARZ036-241700-
EAST ARKANSAS

CITY           SKY/WX    TMP DP  RH WIND       PRES   REMARKS
WEST MEMPHIS   MOSUNNY   78  59  51 N13       30.06S
$$

ARZ050-053-066-070-073-241700-
SOUTHWEST ARKANSAS

CITY           SKY/WX    TMP DP  RH WIND       PRES   REMARKS
ARKADELPHIA    CLOUDY    75  72  91 NE5       30.10S
CAMDEN         CLOUDY    79  70  73 NE5       30.07F
TEXARKANA      CLOUDY    73  70  90 N7        30.08S
EL DORADO      PTSUNNY   79  70  74 MISG      30.07F
$$

ARZ056-057-069-241700-
SOUTHEAST ARKANSAS

CITY           SKY/WX    TMP DP  RH WIND       PRES   REMARKS
PINE BLUFF     CLOUDY    77  70  79 NE5       30.08S
STUTTGART      CLOUDY    75  70  83 N8        30.09S
MONTICELLO     MOSUNNY   82  70  66 E6        30.07R HX  86

$$





USA.gov is the U.S. government's official web portal to all federal, state and local government web resources and services.